TimeCDT,TemperatureF,Dew PointF,Humidity,Sea Level PressureIn,VisibilityMPH,Wind Direction,Wind SpeedMPH,Gust SpeedMPH,PrecipitationIn,Events,Conditions,WindDirDegrees,DateUTC
12:15 AM,82.0,60.8,48,29.84,10.0,South,24.2,32.2,N/A,,Clear,170,2013-06-25 05:15:00
12:35 AM,82.0,60.3,47,29.84,10.0,South,23.0,31.1,N/A,,Clear,170,2013-06-25 05:35:00
12:55 AM,81.7,59.9,47,29.84,10.0,South,24.2,32.2,N/A,,Clear,180,2013-06-25 05:55:00
1:15 AM,81.9,59.5,47,29.84,10.0,South,23.0,32.2,N/A,,Clear,180,2013-06-25 06:15:00
1:35 AM,81.5,59.2,47,29.84,10.0,South,25.3,34.5,N/A,,Clear,180,2013-06-25 06:35:00
1:55 AM,81.1,59.0,47,29.83,10.0,South,21.9,27.6,N/A,,Clear,180,2013-06-25 06:55:00
2:15 AM,81.0,59.0,47,29.83,10.0,South,21.9,31.1,N/A,,Clear,180,2013-06-25 07:15:00
2:35 AM,80.6,59.0,48,29.83,10.0,South,21.9,28.8,N/A,,Clear,190,2013-06-25 07:35:00
2:55 AM,79.9,59.0,49,29.82,10.0,South,20.7,27.6,N/A,,Clear,190,2013-06-25 07:55:00
3:15 AM,79.2,59.2,50,29.82,10.0,South,18.4,24.2,N/A,,Clear,190,2013-06-25 08:15:00
3:35 AM,78.8,59.2,51,29.81,10.0,South,19.6,24.2,N/A,,Clear,190,2013-06-25 08:35:00
3:55 AM,78.6,59.2,51,29.81,10.0,South,19.6,-,N/A,,Clear,190,2013-06-25 08:55:00
4:15 AM,78.3,59.4,52,29.81,10.0,South,20.7,-,N/A,,Clear,190,2013-06-25 09:15:00
4:35 AM,77.9,59.5,53,29.80,10.0,South,17.3,-,N/A,,Clear,180,2013-06-25 09:35:00
4:55 AM,77.2,59.5,54,29.80,10.0,South,16.1,-,N/A,,Clear,180,2013-06-25 09:55:00
5:15 AM,77.2,59.9,55,29.82,10.0,SSW,17.3,-,N/A,,Clear,200,2013-06-25 10:15:00
5:35 AM,77.9,60.1,54,29.82,10.0,SSW,17.3,24.2,N/A,,Clear,200,2013-06-25 10:35:00
5:55 AM,77.2,60.4,56,29.83,10.0,SSW,19.6,23.0,N/A,,Clear,200,2013-06-25 10:55:00
6:15 AM,76.5,60.4,58,29.83,10.0,SSW,21.9,26.5,N/A,,Clear,200,2013-06-25 11:15:00
6:35 AM,76.1,60.8,59,29.83,10.0,SSW,20.7,26.5,N/A,,Clear,200,2013-06-25 11:35:00
6:55 AM,76.1,60.8,59,29.84,10.0,SSW,19.6,27.6,N/A,,Clear,200,2013-06-25 11:55:00
7:15 AM,76.5,61.0,59,29.84,10.0,SSW,23.0,27.6,N/A,,Clear,200,2013-06-25 12:15:00
7:35 AM,77.2,61.2,58,29.83,10.0,SSW,24.2,28.8,N/A,,Clear,200,2013-06-25 12:35:00
7:55 AM,78.8,61.2,55,29.84,10.0,SSW,25.3,31.1,N/A,,Clear,200,2013-06-25 12:55:00
8:15 AM,79.3,61.3,54,29.85,10.0,SSW,23.0,31.1,N/A,,Clear,210,2013-06-25 13:15:00
8:35 AM,79.7,61.3,53,29.85,10.0,SSW,25.3,31.1,N/A,,Clear,210,2013-06-25 13:35:00
8:55 AM,79.7,61.2,53,29.85,10.0,SSW,26.5,31.1,N/A,,Clear,210,2013-06-25 13:55:00
9:15 AM,81.0,61.5,51,29.85,10.0,SW,25.3,31.1,N/A,,Clear,220,2013-06-25 14:15:00
9:35 AM,80.8,61.0,51,29.85,10.0,SW,26.5,32.2,N/A,,Clear,220,2013-06-25 14:35:00
9:55 AM,82.4,60.4,47,29.85,10.0,SW,23.0,31.1,N/A,,Clear,220,2013-06-25 14:55:00
10:15 AM,85.3,59.5,42,29.85,10.0,SW,24.2,31.1,N/A,,Clear,230,2013-06-25 15:15:00
10:35 AM,86.5,58.8,39,29.84,10.0,SW,20.7,27.6,N/A,,Clear,230,2013-06-25 15:35:00
10:55 AM,88.2,56.8,34,29.85,10.0,WSW,21.9,27.6,N/A,,Clear,240,2013-06-25 15:55:00
11:15 AM,90.3,54.1,29,29.84,10.0,SW,17.3,24.2,N/A,,Clear,230,2013-06-25 16:15:00
11:35 AM,92.1,52.7,26,29.84,10.0,SW,18.4,-,N/A,,Clear,230,2013-06-25 16:35:00
11:55 AM,93.6,52.0,24,29.84,10.0,WSW,15.0,21.9,N/A,,Clear,240,2013-06-25 16:55:00
12:15 PM,96.1,50.2,21,29.84,10.0,SW,13.8,23.0,N/A,,Clear,230,2013-06-25 17:15:00
12:35 PM,97.7,44.1,16,29.84,10.0,WSW,16.1,20.7,N/A,,Clear,240,2013-06-25 17:35:00
12:55 PM,99.1,40.3,13,29.83,10.0,WSW,11.5,20.7,N/A,,Clear,240,2013-06-25 17:55:00
1:15 PM,100.8,35.2,10,29.83,10.0,WSW,18.4,24.2,N/A,,Clear,240,2013-06-25 18:15:00
1:35 PM,102.0,32.2,9,29.82,10.0,SW,20.7,-,N/A,,Clear,220,2013-06-25 18:35:00
1:55 PM,102.0,33.3,9,29.82,10.0,WSW,13.8,24.2,N/A,,Clear,240,2013-06-25 18:55:00
2:15 PM,102.7,30.4,8,29.82,10.0,WSW,24.2,31.1,N/A,,Clear,250,2013-06-25 19:15:00
2:35 PM,102.9,28.8,7,29.81,10.0,WSW,17.3,26.5,N/A,,Clear,250,2013-06-25 19:35:00
9:35 PM,83.5,33.1,16,29.77,10.0,South,5.8,-,N/A,,Unknown,170,2013-06-26 02:35:00
9:55 PM,81.7,32.0,17,29.77,10.0,South,8.1,-,N/A,,Clear,170,2013-06-26 02:55:00
10:15 PM,79.0,41.7,26,29.78,10.0,SSE,11.5,-,N/A,,Clear,160,2013-06-26 03:15:00
10:35 PM,81.3,52.5,37,29.78,7.0,South,10.4,-,N/A,,Clear,170,2013-06-26 03:35:00
10:55 PM,78.8,53.4,41,29.79,10.0,South,8.1,-,N/A,,Clear,170,2013-06-26 03:55:00
11:15 PM,76.6,56.5,50,29.80,10.0,South,5.8,-,N/A,,Clear,170,2013-06-26 04:15:00
11:35 PM,78.4,59.2,51,29.80,10.0,Calm,Calm,-,N/A,,Clear,0,2013-06-26 04:35:00
11:55 PM,76.5,58.8,54,29.81,10.0,Calm,Calm,-,N/A,,Clear,0,2013-06-26 04:55:00